Weather Roundup
Issued by NWS

Home | Current Version | Previous Version | Graphics & Text | Print | Product List | Glossary Off
Versions: 1 2 3 4 5 6 7 8 9 10 11 12 13 14 15 16 17 18 19 20 21 22 23 24 25 26 27 28 29 30 31 32 33 34 35 36 37 38 39 40 41 42 43 44 45 46 47 48 49 50

000
NZUS93 KARX 202059
HRRWXR

CURRENT HOURLY OBSERVATIONS ACROSS
MUCH OF THE UPPER MISSISSIPPI VALLEY
NATIONAL WEATHER SERVICE LA CROSSE WI
400 PM CDT FRI APR 20 2018


...SOUTHEAST MINNESOTA...


CITY           SKY/WX    TMP DP  RH WIND       PRES   REMARKS
ROCHESTER      FAIR      44  30  57 SW7       30.44F
ROCHESTER/MAYO FAIR      49  24  37 SE7       30.44F
WINONA         FAIR      55  21  26 S3        30.42F
AUSTIN         FAIR      43  25  49 SE3       30.44F
ALBERT LEA     FAIR      43  19  39 E7        30.44F
DODGE CENTER   FAIR      45  25  45 CALM      30.44F
PRESTON        FAIR      45  22  40 S3        30.44F
OWATONNA       FAIR      46  30  53 SW3       30.44F
FARIBAULT      NOT AVBL
$$

...ELSEWHERE IN MINNESOTA...


CITY           SKY/WX    TMP DP  RH WIND       PRES   REMARKS
MINNEAPOLIS    PTSUNNY   51  17  26 SE7       30.44F
INTNL FALLS    FAIR      58  20  22 VRB6      30.35F
DULUTH         FAIR      54  24  31 SW9       30.38F
RED WING       FAIR      52  10  19 CALM      30.44F
REDWOOD FALLS  SUNNY     42  32  67 SE9       30.42F
MANKATO        FAIR      43  26  51 SE7       30.44F
WORTHINGTON    CLOUDY    41  33  73 E9        30.38F
FAIRMONT       CLOUDY    39  28  64 SE7       30.42F WCI  34
$$

...SOUTHWEST WISCONSIN...


CITY           SKY/WX    TMP DP  RH WIND       PRES   REMARKS
LA CROSSE      FAIR      56  17  21 SW9       30.44F
PRAIRIE DU CHI FAIR      57  26  30 SW7       30.44F
BOSCOBEL       FAIR      60  23  24 VRB3      30.43F
LONE ROCK      NOT AVBL
PLATTEVILLE    FAIR      57  29  34 CALM      30.44F
FORT MC COY    FAIR      54  11  18 SW5       30.46F
CAMP DOUGLAS   FAIR      54  12  19 SW6       30.44F
MAUSTON-NEW LI FAIR      54  11  18 CALM      30.44F
VIROQUA        FAIR      50  25  36 SW3       30.44F
WIS DELLS      FAIR      55  13  18 CALM      30.45F
$$

...ELSEWHERE IN WISCONSIN...


CITY           SKY/WX    TMP DP  RH WIND       PRES   REMARKS
MILWAUKEE      PTSUNNY   52  30  43 E8        30.47F
MADISON        PTSUNNY   57  19  22 W5        30.44F
GREEN BAY      FAIR      49  19  30 S9        30.46F
EAU CLAIRE     NOT AVBL
BLACK RVR FLS  FAIR      56  15  19 W5        30.44F
MEDFORD        FAIR      47  20  33 S7        30.44S
WAUSAU         FAIR      51  15  23 W6        30.42F
WIS RAPIDS     FAIR      53  11  18 W8        30.44F
MARSHFIELD     FAIR      54  17  23 CALM      30.42F
RICE LAKE      FAIR      51  18  26 SW6       30.46F
$$

...NORTHEAST IOWA...


CITY           SKY/WX    TMP DP  RH WIND       PRES   REMARKS
WATERLOO       FAIR      55  28  35 MISG      30.39F
DUBUQUE        FAIR      57  26  30 VRB6      30.43F
DECORAH        FAIR      48  25  40 CALM      30.43F
MASON CITY     CLOUDY    43  33  68 NE8       30.43F
CHARLES CITY   FAIR      50  30  46 NE6       30.43F
OELWEIN        FAIR      55  30  38 VRB3      30.41F
$$

...ELSEWHERE IN IOWA...


CITY           SKY/WX    TMP DP  RH WIND       PRES   REMARKS
DES MOINES     CLOUDY    59  27  29 SE9       30.36F
IOWA CITY      FAIR      60  20  21 SE7       30.42F
FORT DODGE     CLOUDY    54  34  46 SE9       30.38F
MARSHALLTOWN   CLOUDY    56  29  35 S7        30.37F
CEDAR RAPIDS   FAIR      60  23  24 SE5       30.40F
$$

...NORTHERN ILLINOIS...


CITY           SKY/WX    TMP DP  RH WIND       PRES   REMARKS
CHICAGO-OHARE  FAIR      61  21  21 E8        30.44F
CHICAGO-MIDWAY FAIR      58  14  17 E14       30.46F
MOLINE         FAIR      62  15  16 SE8       30.41F
ROCKFORD       FAIR      59  19  21 S7        30.46F
PEORIA         FAIR      61  20  20 SE9       30.42F
$$

NOTE: "FAIR" INDICATES FEW OR NO CLOUDS BELOW 12,000 FEET WITH NO
SIGNIFICANT WEATHER AND/OR OBSTRUCTIONS TO VISIBILITY. WIND
SPEEDS ARE IN MILES-PER-HOUR.




USA.gov is the U.S. government's official web portal to all federal, state and local government web resources and services.